Location: Unspecified
(0.0000°N, 0.0000°E)
Time: 13:52:52
(UTC+00:00)

Amateur Radio Satellites - All Passes

Search period start: 26 September 2016 13:22
Search period end: 27 September 2016 13:22
Location: Unspecified, 0.0000°N, 0.0000°E

Satellite Date Start Highest point End Downlink Frequencies (MHz)
Time Altitude Azimuth
Gurwin Techsat 1B 26 Sep 13:23:03 13:28:12 51° 77° (ENE) 13:33:19 435.225
TISAT 1 26 Sep 13:28:06 13:31:55 36° 282° (WNW) 13:35:47 437.305
JUGNU 26 Sep 13:31:55 13:36:41 24° 163° (SSE) 13:41:28 437.505
ITAMSAT 1 26 Sep 13:33:26 13:35:01 11° 77° (ENE) 13:36:36 435.822/435.867
YUBILEINY 26 Sep 13:38:51 13:46:52 42° 87° (E) 13:54:53 435.215
SO-50 26 Sep 13:52:49 13:57:32 55° 292° (WNW) 14:02:17 436.795
Cosmos 2504 26 Sep 13:53:11 13:56:32 13° 89° (E) 13:59:58 435.465 / 435.565
AIST 2 26 Sep 13:55:08 13:59:16 61° 68° (ENE) 14:03:23 435.215
Oscar 19 26 Sep 14:23:23 14:25:08 12° 257° (WSW) 14:26:52 437.125/150
ITUPSAT 1 26 Sep 14:25:18 14:30:03 63° 282° (WNW) 14:34:48 437.325
SRMSAT 26 Sep 14:25:26 14:28:18 14° 170° (S) 14:31:10 437.500
SWISSCUBE 26 Sep 14:39:53 14:44:12 34° 282° (WNW) 14:48:31 437.505
PCSat 26 Sep 14:43:34 14:48:54 65° 71° (ENE) 14:54:15 145.827
BEESAT 26 Sep 14:53:24 14:57:23 26° 282° (WNW) 15:01:22 436.000
MOZHAYETS 4 26 Sep 14:58:50 15:03:07 37° 102° (ESE) 15:07:23
Cosmos 2491 26 Sep 15:02:38 15:10:35 40° 273° (W) 15:18:36 435.465 / 435.565
AO-7 26 Sep 15:05:35 15:13:53 66° 74° (ENE) 15:22:05 29.400- 29.500
ITAMSAT 1 26 Sep 15:09:21 15:14:12 42° 257° (WSW) 15:19:03 435.822/435.867
JUGNU 26 Sep 15:20:02 15:25:57 61° 159° (SSE) 15:31:53 437.505
YUBILEINY 26 Sep 15:36:41 15:43:15 24° 267° (W) 15:49:54 435.215
KKS-1 26 Sep 15:37:30 15:41:54 74° 101° (ESE) 15:46:20 437.445
Cosmos 2504 26 Sep 15:41:30 15:49:18 66° 267° (W) 15:57:46 435.465 / 435.565
AIST 1 26 Sep 15:59:45 16:03:30 31° 86° (E) 16:07:16
SRMSAT 26 Sep 16:13:07 16:18:09 28° 162° (SSE) 16:23:10 437.500
CUBESAT XI-V 26 Sep 16:13:53 16:17:50 28° 102° (ESE) 16:21:47 437.345
STARS 26 Sep 16:16:16 16:20:37 80° 283° (WNW) 16:25:01 437.465
BRITE-PL 26 Sep 16:31:54 16:36:30 27° 77° (ENE) 16:41:12 437.365/2234.400
NOAA 15 26 Sep 16:47:21 16:50:04 14° 77° (ENE) 16:52:47 137.62
ISS 26 Sep 16:52:55 16:55:00 16° 126° (SE) 16:57:04 145.825
Cubesat XI-IV 26 Sep 16:57:04 16:59:45 14° 77° (ENE) 17:02:25 437.490
CUTE-I 26 Sep 16:57:40 17:00:29 15° 77° (ENE) 17:03:17 437.470
AO-7 26 Sep 17:01:50 17:06:11 15° 252° (WSW) 17:10:33 29.400- 29.500
JUGNU 26 Sep 17:09:15 17:15:03 49° 339° (NNW) 17:20:48 437.505
HORYU 2 26 Sep 17:10:42 17:14:56 45° 258° (WSW) 17:19:08 437.375
LilacSat-2 26 Sep 17:21:52 17:24:59 25° 79° (E) 17:28:05 437.200
NOAA 18 26 Sep 17:22:11 17:26:28 23° 77° (ENE) 17:30:43 137.9125
O/OREOS (USA 219) 26 Sep 17:40:14 17:44:38 49° 76° (ENE) 17:49:01 437.305
CUBESAT XI-V 26 Sep 17:52:37 17:54:56 14° 282° (WNW) 17:57:14 437.345
SRMSAT 26 Sep 18:01:32 18:07:30 73° 159° (SSE) 18:13:25 437.500
RS-15 26 Sep 18:06:27 18:17:25 72° 110° (ESE) 18:28:56 29.354- 29.394
GOMX 1 26 Sep 18:07:48 18:13:11 59° 259° (WSW) 18:18:33 467.674
CUSAT 1 26 Sep 18:08:13 18:12:23 57° 93° (E) 18:17:53 437.405
BRITE-PL 26 Sep 18:10:33 18:14:39 22° 259° (WSW) 18:18:53 437.365/2234.400
STRAND 1 26 Sep 18:11:24 18:15:18 22° 103° (ESE) 18:19:12 437.568
NOAA 15 26 Sep 18:24:45 18:29:33 36° 257° (WSW) 18:34:22 137.62
CINEMA 3 26 Sep 18:28:05 18:31:05 17° 79° (E) 18:34:00 145.822/145.860
ISS 26 Sep 18:29:23 18:31:17 15° 306° (NW) 18:33:11 145.825
PHONESAT 2.4 26 Sep 18:29:43 18:32:09 23° 42° (NE) 18:34:35 2401.200-2431.200
Cubesat XI-IV 26 Sep 18:34:40 18:39:32 37° 257° (WSW) 18:44:22 437.490
CUTE-I 26 Sep 18:35:26 18:40:15 35° 257° (WSW) 18:45:03 437.470
DOVE 4 26 Sep 18:38:18 18:43:34 65° 258° (WSW) 18:48:41 437.250
Cosmos 2499 26 Sep 18:59:01 19:05:13 24° 88° (E) 19:11:40 435.465 / 435.565
JUGNU 26 Sep 19:00:03 19:04:22 20° 344° (NNW) 19:08:40 437.505
NOAA 18 26 Sep 19:02:28 19:06:50 24° 256° (WSW) 19:11:12 137.9125
CUTE 1.7 + AOD 2 26 Sep 19:13:07 19:17:04 41° 78° (ENE) 19:21:01 437.475
CANX-2 26 Sep 19:13:52 19:17:58 52° 78° (ENE) 19:22:03 2200.000
SEEDS 26 Sep 19:18:02 19:21:41 29° 79° (ENE) 19:25:20 437.485
DANDE 26 Sep 19:23:52 19:27:07 54° 277° (W) 19:31:20 436.750
AO-85 26 Sep 19:32:42 19:38:03 67° 291° (WNW) 19:43:20 145.980
AAUSAT CUBESAT 2 26 Sep 19:45:26 19:49:09 33° 79° (ENE) 19:52:52 437.432
CUBEBUG 2 26 Sep 19:46:03 19:50:04 34° 79° (E) 19:53:57 437.445
HO-68 26 Sep 19:47:23 19:54:35 77° 255° (WSW) 20:01:44 435.675
STRAND 1 26 Sep 19:50:14 19:54:11 23° 283° (WNW) 19:58:11 437.568
SRMSAT 26 Sep 19:51:10 19:56:43 41° 340° (NNW) 20:02:16 437.500
GONETS M04 26 Sep 19:56:34 20:05:19 85° 87° (E) 20:14:03
PRISM 26 Sep 20:00:25 20:03:50 26° 102° (ESE) 20:07:14 437.425
FUNcube-1 26 Sep 20:01:14 20:03:40 15° 79° (E) 20:06:04 145.935
CINEMA 3 26 Sep 20:04:03 20:07:58 25° 257° (WSW) 20:11:46 145.822/145.860
PHONESAT 2.4 26 Sep 20:06:38 20:08:09 13° 222° (SW) 20:09:41 2401.200-2431.200
UWE-3 26 Sep 20:07:37 20:11:41 40° 79° (E) 20:15:38 435.000/436.395/437.385
RS-15 26 Sep 20:22:49 20:29:40 18° 294° (WNW) 20:36:46 29.354- 29.394
COMPASS 1 26 Sep 20:27:52 20:31:42 37° 259° (WSW) 20:35:33 437.405
ZACube-1 26 Sep 20:40:30 20:44:45 67° 78° (ENE) 20:48:53 437.345
Oscar 11 26 Sep 20:41:28 20:45:44 67° 78° (ENE) 20:49:59 145.826/435.025
Cosmos 2499 26 Sep 20:50:19 20:57:52 43° 266° (W) 21:05:57 435.465 / 435.565
JUGNU 26 Sep 20:52:46 20:54:14 11° 353° (N) 20:55:43 437.505
TIGRISAT 26 Sep 20:55:31 20:56:27 11° 103° (ESE) 20:57:24 435.000
HUMSAT D 26 Sep 21:15:49 21:19:05 23° 79° (ENE) 21:22:19 437.325/437.525
DELFI C3 26 Sep 21:19:00 21:22:57 72° 79° (ENE) 21:26:55 145.870
UNISAT 6 26 Sep 21:32:11 21:36:26 40° 102° (ESE) 21:40:47 437.425
FUNcube-1 26 Sep 21:36:33 21:39:39 20° 258° (WSW) 21:42:43 145.935
PRISM 26 Sep 21:37:51 21:38:52 11° 282° (WNW) 21:39:52 437.425
SRMSAT 26 Sep 21:42:26 21:46:17 18° 346° (NNW) 21:50:09 437.500
ANTELSAT 26 Sep 22:07:22 22:11:51 64° 282° (WNW) 22:16:28 437.575/2403.000
QB50P2 26 Sep 22:23:51 22:26:24 16° 102° (ESE) 22:28:57 145.880/145.840
POLYITAN 1 26 Sep 22:26:04 22:28:38 16° 102° (ESE) 22:31:12 437.675
TIGRISAT 26 Sep 22:28:42 22:32:48 35° 281° (WNW) 22:37:01 435.000
AISAT 26 Sep 22:31:22 22:32:16 11° 78° (ENE) 22:33:10 437.250
M-CUBED/EXP-1 PRIME 26 Sep 22:48:03 22:50:38 15° 76° (ENE) 22:53:08 437.505
BEESAT 3 26 Sep 22:51:04 22:54:41 39° 112° (ESE) 22:58:19 437.485
JAS-2 26 Sep 22:52:35 22:59:04 33° 101° (ESE) 23:04:59 435.910
HUMSAT D 26 Sep 22:52:52 22:54:26 12° 258° (WSW) 22:55:58 437.325/437.525
DUCHIFAT 1 26 Sep 23:04:43 23:08:46 48° 102° (ESE) 23:12:52 145.980
QB50P1 26 Sep 23:05:03 23:09:12 60° 102° (ESE) 23:13:24 145.935-145.965
ESTCUBE 1 26 Sep 23:05:44 23:10:15 85° 81° (E) 23:14:46 437.505/2401.250
DX 1 26 Sep 23:09:43 23:12:56 20° 78° (ENE) 23:16:07 434.975-435.025
VELOX 1 26 Sep 23:11:47 23:15:58 39° 78° (ENE) 23:20:07 145.980
BUGSAT 1 26 Sep 23:14:20 23:17:17 20° 102° (ESE) 23:20:16 437.445
50 SAT 26 Sep 23:15:41 23:19:05 40° 79° (ENE) 23:22:28 437.505
POPSAT HIP 1 26 Sep 23:18:21 23:22:34 87° 281° (WNW) 23:26:50 437.405
CUBEBUG 1 26 Sep 23:19:39 23:24:05 75° 78° (ENE) 23:28:30 437.445
SRMSAT 26 Sep 23:35:50 23:36:24 10° 355° (N) 23:36:59 437.500
NANOSAT C BR1 26 Sep 23:35:53 23:39:56 49° 282° (WNW) 23:44:02 145.865
BEESAT 2 26 Sep 23:43:11 23:47:05 83° 292° (WNW) 23:50:59 435.950
AUBIESAT-1 26 Sep 23:44:26 23:48:58 74° 75° (ENE) 23:53:13 437.475
QB50P2 26 Sep 23:58:48 00:01:55 20° 282° (WNW) 00:05:04 145.880/145.840
POLYITAN 1 27 Sep 00:01:02 00:04:09 20° 282° (WNW) 00:07:18 437.675
AISAT 27 Sep 00:04:27 00:08:28 33° 258° (WSW) 00:12:28 437.250
SPROUT 27 Sep 00:07:36 00:11:53 68° 258° (WSW) 00:16:07 437.525
UKube-1 27 Sep 00:18:48 00:23:02 55° 258° (WSW) 00:27:16 .
M-CUBED/EXP-1 PRIME 27 Sep 00:21:00 00:24:53 27° 253° (WSW) 00:28:36 437.505
SO-50 27 Sep 00:28:06 00:30:01 13° 67° (ENE) 00:31:56 436.795
JUGNU 27 Sep 00:30:48 00:34:26 17° 14° (NNE) 00:38:03 437.505
JAS-2 27 Sep 00:37:38 00:43:42 28° 285° (WNW) 00:49:23 435.910
DX 1 27 Sep 00:45:58 00:48:51 17° 258° (WSW) 00:51:43 434.975-435.025
BUGSAT 1 27 Sep 00:50:10 00:52:24 14° 282° (WNW) 00:54:39 437.445
ITUPSAT 1 27 Sep 01:12:40 01:14:48 13° 77° (ENE) 01:16:56 437.325
Oscar 19 27 Sep 01:14:39 01:19:44 76° 284° (WNW) 01:24:52 437.125/150
SWISSCUBE 27 Sep 01:24:54 01:28:39 23° 78° (ENE) 01:32:23 437.505
SRMSAT 27 Sep 01:25:32 01:26:46 11° 6° (N) 01:28:02 437.500
TISAT 1 27 Sep 01:33:31 01:37:16 31° 258° (WSW) 01:40:58 437.305
BEESAT 27 Sep 01:37:39 01:41:47 30° 78° (ENE) 01:45:54 436.000
PCSat 27 Sep 01:39:27 01:41:56 13° 110° (ESE) 01:44:24 145.827
Cosmos 2491 27 Sep 01:39:30 01:47:57 52° 87° (E) 01:56:22 435.465 / 435.565
AO-7 27 Sep 01:45:31 01:47:51 11° 108° (ESE) 01:50:10 29.400- 29.500
AIST 2 27 Sep 01:53:30 01:57:33 77° 112° (ESE) 02:01:36 435.215
Gurwin Techsat 1B 27 Sep 02:01:26 02:06:37 55° 282° (WNW) 02:11:48 435.225
Cosmos 2504 27 Sep 02:04:03 02:09:06 18° 95° (E) 02:13:56 435.465 / 435.565
ITAMSAT 1 27 Sep 02:05:19 02:09:54 31° 103° (ESE) 02:14:30 435.822/435.867
SO-50 27 Sep 02:06:28 02:10:13 27° 248° (WSW) 02:13:58 436.795
YUBILEINY 27 Sep 02:11:39 02:20:31 81° 93° (E) 02:29:18 435.215
JUGNU 27 Sep 02:18:27 02:23:51 38° 20° (NNE) 02:29:15 437.505
ITUPSAT 1 27 Sep 02:48:11 02:52:22 31° 258° (WSW) 02:56:33 437.325
SWISSCUBE 27 Sep 03:03:02 03:06:11 18° 258° (WSW) 03:09:18 437.505
SRMSAT 27 Sep 03:12:41 03:16:50 19° 15° (NNE) 03:21:00 437.500
MOZHAYETS 4 27 Sep 03:15:19 03:19:50 64° 78° (ENE) 03:24:19
BEESAT 27 Sep 03:16:58 03:19:17 14° 257° (WSW) 03:21:36 436.000
PCSat 27 Sep 03:20:03 03:25:04 40° 289° (WNW) 03:30:05 145.827
AO-7 27 Sep 03:31:50 03:40:06 80° 286° (WNW) 03:48:26 29.400- 29.500
Cosmos 2491 27 Sep 03:38:38 03:44:22 19° 267° (W) 03:50:09 435.465 / 435.565
ITAMSAT 1 27 Sep 03:45:59 03:49:06 16° 283° (WNW) 03:52:13 435.822/435.867
HORYU 2 27 Sep 03:49:27 03:50:57 11° 103° (ESE) 03:52:27 437.375
KKS-1 27 Sep 03:50:00 03:54:28 73° 259° (WSW) 03:58:54 437.445
Cosmos 2504 27 Sep 03:54:38 04:02:15 47° 272° (W) 04:09:21 435.465 / 435.565
AIST 1 27 Sep 04:05:54 04:10:07 46° 94° (E) 04:14:20
JUGNU 27 Sep 04:07:04 04:12:55 77° 201° (SSW) 04:18:47 437.505
STARS 27 Sep 04:27:16 04:31:35 55° 258° (WSW) 04:35:53 437.465
ISS 27 Sep 04:28:33 04:28:56 10° 54° (NE) 04:29:19 145.825
CUBESAT XI-V 27 Sep 04:31:34 04:36:04 50° 78° (ENE) 04:40:35 437.345
GOMX 1 27 Sep 04:57:09 04:58:51 12° 102° (ESE) 05:00:32 467.674
BRITE-PL 27 Sep 04:59:22 05:03:33 48° 101° (E) 05:07:34 437.365/2234.400
SRMSAT 27 Sep 05:00:39 05:06:21 46° 21° (NNE) 05:12:03 437.500
CUSAT 1 27 Sep 05:09:29 05:12:21 14° 78° (ENE) 05:14:56 437.405
LilacSat-2 27 Sep 05:16:23 05:19:20 21° 102° (ESE) 05:22:18 437.200
NOAA 15 27 Sep 05:22:29 05:27:23 40° 103° (ESE) 05:32:16 137.62
HORYU 2 27 Sep 05:23:17 05:27:13 31° 282° (WNW) 05:31:10 437.375
Cubesat XI-IV 27 Sep 05:34:07 05:39:09 42° 103° (ESE) 05:44:12 437.490
CUTE-I 27 Sep 05:34:39 05:39:43 43° 103° (ESE) 05:44:47 437.470
RS-15 27 Sep 05:48:44 06:00:39 63° 69° (ENE) 06:12:00 29.354- 29.394
O/OREOS (USA 219) 27 Sep 05:51:04 05:55:34 87° 103° (ESE) 06:00:06 437.305
PHONESAT 2.4 27 Sep 05:55:25 05:56:43 12° 138° (SE) 05:58:01 2401.200-2431.200
JUGNU 27 Sep 05:57:02 06:02:03 29° 198° (SSW) 06:07:05 437.505
ISS 27 Sep 06:02:30 06:05:13 24° 234° (SW) 06:07:57 145.825
NOAA 18 27 Sep 06:05:15 06:10:43 76° 103° (ESE) 06:16:14 137.9125
DANDE 27 Sep 06:24:54 06:32:01 39° 82° (E) 06:37:54 436.750
GOMX 1 27 Sep 06:33:27 06:36:42 22° 282° (WNW) 06:39:57 467.674
GONETS M04 27 Sep 06:36:40 06:42:28 19° 93° (E) 06:48:15
STRAND 1 27 Sep 06:42:58 06:47:57 54° 78° (ENE) 06:52:53 437.568
CINEMA 3 27 Sep 06:43:12 06:46:45 24° 103° (ESE) 06:50:25 145.822/145.860
CUSAT 1 27 Sep 06:48:45 06:54:27 37° 269° (W) 06:58:57 437.405
SRMSAT 27 Sep 06:49:39 06:55:34 64° 201° (SSW) 07:01:31 437.500
LilacSat-2 27 Sep 06:51:57 06:53:22 12° 281° (W) 06:54:48 437.200
DOVE 4 27 Sep 07:00:05 07:03:40 29° 281° (W) 07:07:23 437.250
NOAA 15 27 Sep 07:04:42 07:06:52 13° 283° (WNW) 07:09:03 137.62
Cosmos 2499 27 Sep 07:09:45 07:16:06 28° 95° (E) 07:22:06 435.465 / 435.565
Cubesat XI-IV 27 Sep 07:16:49 07:18:56 12° 283° (WNW) 07:21:04 437.490
CUTE-I 27 Sep 07:17:31 07:19:27 12° 283° (WNW) 07:21:24 437.470
CUTE 1.7 + AOD 2 27 Sep 07:19:13 07:23:23 52° 101° (ESE) 07:27:33 437.475
CANX-2 27 Sep 07:20:08 07:24:24 67° 101° (E) 07:28:39 2200.000
SEEDS 27 Sep 07:23:03 07:26:56 36° 102° (ESE) 07:30:49 437.485
PHONESAT 2.4 27 Sep 07:30:17 07:32:42 23° 317° (NW) 07:35:07 2401.200-2431.200
HO-68 27 Sep 07:38:53 07:46:02 90° 296° (WNW) 07:53:14 435.675
AO-85 27 Sep 07:47:12 07:50:30 28° 248° (WSW) 07:53:52 145.980
JUGNU 27 Sep 07:48:46 07:51:40 14° 191° (S) 07:54:35 437.505
AAUSAT CUBESAT 2 27 Sep 07:48:52 07:52:44 37° 102° (ESE) 07:56:35 437.432
CUBEBUG 2 27 Sep 07:57:34 08:01:54 52° 102° (ESE) 08:06:24 437.445
PRISM 27 Sep 08:02:58 08:06:34 29° 78° (ENE) 08:10:09 437.425
RS-15 27 Sep 08:04:06 08:12:36 23° 249° (WSW) 08:20:56 29.354- 29.394
DANDE 27 Sep 08:08:42 08:14:14 22° 270° (W) 08:19:03 436.750
FUNcube-1 27 Sep 08:09:23 08:12:52 22° 102° (ESE) 08:16:23 145.935
UWE-3 27 Sep 08:17:58 08:22:22 60° 101° (ESE) 08:26:54 435.000/436.395/437.385
CINEMA 3 27 Sep 08:21:27 08:23:39 14° 281° (W) 08:25:55 145.822/145.860
GONETS M04 27 Sep 08:30:27 08:38:53 52° 273° (W) 08:47:21
COMPASS 1 27 Sep 08:32:06 08:35:52 33° 281° (W) 08:39:37 437.405
SRMSAT 27 Sep 08:40:08 08:44:59 25° 197° (SSW) 08:49:51 437.500
ZACube-1 27 Sep 08:49:45 08:54:12 87° 281° (WNW) 08:58:46 437.345
Oscar 11 27 Sep 08:50:01 08:54:22 90° 52° (NE) 08:58:44 145.826/435.025
Cosmos 2499 27 Sep 09:02:30 09:08:51 29° 272° (W) 09:14:53 435.465 / 435.565
TIGRISAT 27 Sep 09:07:15 09:09:47 15° 79° (ENE) 09:12:16 435.000
DELFI C3 27 Sep 09:17:41 09:21:38 69° 101° (ESE) 09:25:35 145.870
HUMSAT D 27 Sep 09:20:00 09:23:43 29° 102° (ESE) 09:27:27 437.325/437.525
PRISM 27 Sep 09:41:16 09:41:35 10° 258° (WSW) 09:41:55 437.425
UNISAT 6 27 Sep 09:45:41 09:50:03 62° 78° (ENE) 09:54:18 437.425
FUNcube-1 27 Sep 09:46:03 09:48:50 16° 281° (W) 09:51:39 145.935
ANTELSAT 27 Sep 10:21:20 10:25:27 39° 258° (WSW) 10:29:28 437.575/2403.000
JAS-2 27 Sep 10:27:25 10:30:00 13° 74° (ENE) 10:32:40 435.910
QB50P2 27 Sep 10:29:48 10:32:50 19° 78° (ENE) 10:35:50 145.880/145.840
POLYITAN 1 27 Sep 10:32:02 10:35:04 19° 78° (ENE) 10:38:04 437.675
SRMSAT 27 Sep 10:32:19 10:34:54 13° 189° (S) 10:37:28 437.500
AISAT 27 Sep 10:41:19 10:43:49 15° 102° (ESE) 10:46:19 437.250
TIGRISAT 27 Sep 10:42:50 10:46:13 22° 258° (WSW) 10:49:32 435.000
BEESAT 3 27 Sep 10:43:13 10:46:56 41° 68° (ENE) 10:50:38 437.485
HUMSAT D 27 Sep 10:57:48 10:59:04 11° 282° (WNW) 11:00:19 437.325/437.525
50 SAT 27 Sep 11:04:38 11:07:43 26° 102° (ESE) 11:10:47 437.505
DUCHIFAT 1 27 Sep 11:10:12 11:14:22 59° 79° (ENE) 11:18:29 145.980
QB50P1 27 Sep 11:11:13 11:15:27 75° 79° (E) 11:19:40 145.935-145.965
BUGSAT 1 27 Sep 11:17:16 11:20:35 22° 78° (ENE) 11:23:49 437.445
DX 1 27 Sep 11:18:51 11:22:28 26° 102° (ESE) 11:26:05 434.975-435.025
ESTCUBE 1 27 Sep 11:19:52 11:24:18 60° 282° (WNW) 11:28:44 437.505/2401.250
VELOX 1 27 Sep 11:23:11 11:27:28 58° 102° (ESE) 11:31:47 145.980
POPSAT HIP 1 27 Sep 11:24:39 11:28:53 70° 259° (W) 11:33:04 437.405
JUGNU 27 Sep 11:29:17 11:31:59 13° 170° (S) 11:34:40 437.505
CUBEBUG 1 27 Sep 11:29:46 11:34:04 78° 281° (W) 11:38:22 437.445
BEESAT 2 27 Sep 11:36:32 11:40:30 78° 248° (WSW) 11:44:29 435.950
NANOSAT C BR1 27 Sep 11:41:52 11:45:50 40° 258° (WSW) 11:49:46 145.865
AUBIESAT-1 27 Sep 11:43:52 11:47:14 61° 106° (ESE) 11:50:50 437.475
TISAT 1 27 Sep 12:05:32 12:06:58 12° 102° (ESE) 12:08:26 437.305
QB50P2 27 Sep 12:05:40 12:08:22 16° 258° (WSW) 12:11:01 145.880/145.840
POLYITAN 1 27 Sep 12:07:55 12:10:36 16° 258° (WSW) 12:13:14 437.675
JAS-2 27 Sep 12:09:18 12:14:34 45° 259° (W) 12:20:25 435.910
Oscar 19 27 Sep 12:11:06 12:14:25 17° 77° (ENE) 12:17:44 437.125/150
SPROUT 27 Sep 12:14:56 12:19:04 52° 282° (WNW) 12:23:13 437.525
AISAT 27 Sep 12:16:37 12:20:01 22° 282° (WNW) 12:23:26 437.250
M-CUBED/EXP-1 PRIME 27 Sep 12:21:15 12:23:49 20° 284° (WNW) 12:26:29 437.505
UKube-1 27 Sep 12:27:25 12:31:27 41° 282° (WNW) 12:35:29 .
SO-50 27 Sep 12:38:39 12:42:40 26° 112° (ESE) 12:46:42 436.795
YUBILEINY 27 Sep 12:52:10 12:57:28 18° 87° (E) 13:02:45 435.215
BUGSAT 1 27 Sep 12:53:33 12:55:39 14° 257° (WSW) 12:57:44 437.445
DX 1 27 Sep 12:56:37 12:58:23 12° 282° (WNW) 13:00:09 434.975-435.025
Gurwin Techsat 1B 27 Sep 13:01:01 13:05:29 27° 77° (ENE) 13:09:54 435.225
